#timestamp,LO_Frequency,Hit 
1500764415.4,286047022.4,N
1500764435.2,286047025.2,N
1500764455.0,286047024.1,N
1500764455.9,286047024.1,N
1500764475.8,286047026.7,N
1500764495.6,286047028.3,N
1500764515.4,286047025.4,N
1500764535.3,286047026.5,N
1500764555.1,286047023.9,N
1500764556.0,286047023.9,N
1500764575.8,286047025.8,N
1500764595.7,286047023.7,N
1500764615.5,286047024.6,N
1500764635.3,286047022.2,N
1500764655.2,286047024.6,N
1500764675.9,286047024.1,N
1500764695.7,286047026.6,N
1500764715.6,286047026.3,N
1500764735.4,286047025.7,N
1500764755.2,286047027.7,N
1500764775.1,286047025.5,N
1500764776.0,286047025.5,N
1500764795.8,286047026.5,N
1500764815.6,286047026.0,N
1500764835.4,286047025.4,N
1500764855.3,286047027.5,N
1500764875.1,286047027.2,N
1500764895.8,286047027.5,N
1500764915.7,286047025.7,N
1500764935.5,286047030.0,N
1500764955.3,286047027.1,N
1500764975.2,286047026.9,N
1500764995.0,286047027.5,N
1500764995.9,286047027.5,N
1500765015.7,286047029.8,N
1500765035.6,286047029.6,N
1500765055.4,286047027.2,N
1500765075.2,286047030.0,N
1500765095.1,286047029.8,N
1500765096.0,286047029.8,N
1500765115.8,286047027.2,N
1500765135.6,286047028.1,N
1500765155.5,286047027.8,N
1500765175.3,286047027.1,N
1500765195.1,286047029.8,N
1500765215.9,286047029.9,N
1500765235.7,286047028.6,N
1500765255.5,286047029.3,N
1500765275.4,286047026.9,N
1500765295.2,286047029.8,N
1500765315.0,286047031.1,N
1500765315.9,286047031.1,N
1500765335.8,286047028.6,N
1500765355.6,286047028.9,N
1500765375.4,286047026.9,N
1500765395.2,286047026.9,N
1500765415.1,286047031.6,N
1500765416.0,286047031.6,N
1500765435.8,286047029.1,N
1500765455.6,286047029.0,N
1500765475.5,286047029.1,N
1500765495.3,286047031.1,N
1500765515.1,286047028.5,N
1500765535.9,286047029.0,N
1500765555.7,286047030.6,N
1500765575.5,286047030.9,N
1500765595.4,286047031.4,N
1500765615.2,286047031.2,N
1500765635.0,286047030.5,N
1500765635.9,286047030.5,N
1500765655.8,286047033.1,N
1500765675.6,286047030.7,N
1500765695.4,286047030.1,N
1500765715.3,286047032.8,N
1500765735.1,286047032.4,N
1500765755.8,286047032.3,N
1500765775.7,286047032.7,N
1500765795.5,286047032.2,N
1500765815.3,286047030.5,N
1500765835.2,286047033.2,N
1500765855.9,286047033.0,N
1500765875.7,286047030.6,N
1500765895.6,286047032.7,N
1500765915.4,286047032.3,N
1500765935.2,286047034.6,N
1500765955.1,286047034.5,N
1500765956.0,286047034.5,N
1500765975.8,286047034.1,N
1500765995.6,286047034.3,N
1500766015.5,286047031.8,N
1500766035.3,286047034.3,N
1500766055.1,286047033.4,N
1500766075.9,286047033.7,N
1500766095.7,286047034.2,N
1500766115.5,286047034.4,N
1500766135.3,286047032.3,N
1500766155.2,286047031.7,N
1500766175.0,286047034.0,N
1500766175.9,286047034.0,N
1500766195.7,286047034.1,N
1500766215.6,286047034.1,N
1500766235.4,286047032.1,N
1500766255.2,286047034.3,N
1500766275.1,286047031.7,N
1500766276.0,286047031.7,N
1500766295.8,286047033.7,N
1500766315.6,286047036.2,N
1500766335.5,286047035.1,N
1500766355.3,286047037.3,N
1500766375.1,286047035.4,N
1500766395.9,286047035.8,N
1500766415.7,286047035.2,N
1500766435.5,286047035.3,N
1500766455.4,286047037.7,N
1500766475.2,286047037.0,N
1500766495.0,286047036.6,N
1500766495.9,286047036.6,N
1500766515.8,286047037.4,N
1500766535.6,286047037.1,N
1500766555.4,286047037.3,N
1500766575.3,286047037.6,N
1500766595.1,286047037.7,N
1500766596.0,286047037.7,N
1500766615.8,286047038.0,N
1500766635.7,286047037.3,N
1500766655.5,286047039.2,N
1500766675.3,286047039.0,N
1500766695.2,286047039.4,N
1500766715.9,286047035.5,N
1500766735.7,286047035.4,N
1500766755.6,286047037.6,N
1500766775.4,286047037.2,N
1500766795.2,286047036.5,N
1500766815.0,286047039.4,N
1500766816.0,286047039.4,N
1500766835.8,286047039.2,N
1500766855.6,286047039.3,N
1500766875.4,286047039.1,N
1500766895.3,286047039.3,N
1500766915.1,286047039.0,N
1500766935.8,286047039.5,N
1500766955.7,286047039.2,N
1500766975.5,286047036.9,N
1500766995.3,286047038.3,N
1500767015.2,286047039.2,N
1500767035.9,286047038.7,N
1500767055.7,286047039.1,N
1500767075.6,286047036.5,N
1500767095.4,286047039.3,N
1500767115.2,286047040.8,N
1500767135.1,286047039.3,N
1500767136.0,286047039.3,N
1500767155.8,286047038.1,N
1500767175.6,286047038.3,N
1500767195.5,286047041.1,N
1500767215.3,286047038.6,N
1500767235.1,286047041.1,N
1500767255.9,286047039.8,N
1500767275.7,286047041.0,N
1500767295.5,286047039.8,N
1500767315.3,286047040.4,N
1500767335.2,286047042.6,N
1500767355.0,286047042.7,N
1500767355.9,286047042.7,N
1500767375.7,286047042.7,N
1500767395.6,286047039.8,N
1500767415.4,286047042.5,N
1500767435.2,286047042.2,N
1500767455.1,286047043.0,N
1500767456.0,286047043.0,N
1500767475.8,286047044.1,N
1500767495.6,286047041.4,N
1500767515.5,286047041.8,N
1500767535.3,286047043.9,N
1500767555.1,286047044.4,N
1500767575.9,286047044.3,N
1500767595.7,286047044.1,N
1500767615.5,286047045.7,N
1500767635.4,286047045.6,N
1500767655.2,286047045.6,N
1500767675.0,286047043.7,N
1500767675.9,286047043.7,N
1500767695.8,286047046.0,N
1500767715.6,286047045.6,N
1500767735.4,286047045.7,N
1500767755.3,286047045.7,N
1500767775.1,286047045.1,N
1500767776.0,286047045.1,N
1500767795.8,286047045.4,N
1500767815.7,286047045.0,N
1500767835.5,286047045.4,N
1500767855.3,286047042.9,N
1500767875.2,286047044.8,N
1500767895.9,286047045.5,N
1500767915.7,286047045.6,N
1500767935.6,286047046.0,N
1500767955.4,286047043.6,N
1500767975.2,286047042.9,N
1500767995.1,286047045.8,N
1500767996.0,286047045.8,N
